Wind_Speed
17 18 18 18 18 19 19 19 19 19 19 19 19 20 21 22 21 21 18 14 13 11 10 8 12 12 11 14 14 17 13 3 5 4 7 14 11 2 6 11 10 7 20 29 31
18 18 19 20 20 20 20 20 20 20 19 19 18 18 18 20 20 23 23 22 19 18 13 16 16 14 16 13 13 14 13 6 8 8 6 10 12 10 11 13 12 9 27 31 31
19 19 20 21 21 22 22 21 21 20 20 19 17 17 16 15 17 17 13 15 19 20 16 16 14 15 18 17 13 16 12 8 4 1 2 15 13 8 12 11 18 18 28 31 30
20 21 22 22 23 24 24 23 21 20 20 19 17 15 13 7 6 2 7 10 17 18 18 19 18 18 17 15 16 14 10 2 5 6 3 10 16 9 9 14 19 20 27 30 29
22 23 24 24 24 24 24 23 21 21 20 18 16 14 11 9 20 16 9 5 12 19 20 21 20 19 18 13 12 12 12 2 7 5 7 11 9 13 11 8 19 21 26 29 28
24 25 26 25 25 25 25 24 22 20 19 17 14 12 8 16 7 13 11 12 12 16 17 20 18 18 18 17 11 5 6 5 6 11 7 11 12 12 12 15 20 22 27 28 27
25 25 27 27 27 25 24 24 23 20 17 15 12 10 12 21 6 11 15 15 15 14 14 18 20 14 17 15 18 12 12 9 11 12 12 11 12 5 15 16 19 21 26 27 26
26 26 27 27 27 26 24 23 24 19 17 14 10 6 11 6 15 13 14 21 21 18 16 13 18 17 22 15 9 14 16 12 15 13 12 11 13 16 16 17 18 22 25 26 26
26 27 27 28 28 25 23 25 20 20 13 10 4 6 12 10 11 17 16 16 21 20 18 15 16 21 19 15 15 16 16 13 15 16 13 9 8 16 16 17 18 21 24 25 25
30 30 28 28 27 25 23 21 19 13 11 9 7 8 12 3 3 10 21 17 19 23 19 16 17 16 17 16 16 19 21 21 17 14 15 13 10 12 15 16 17 21 23 25 27
32 32 30 26 26 20 25 17 11 3 8 15 22 22 16 11 10 10 18 19 21 23 20 24 17 21 25 23 21 21 19 12 18 23 17 16 11 16 15 15 18 20 24 26 27
31 32 31 25 22 16 15 11 7 8 17 23 31 30 27 20 10 15 18 25 20 22 23 18 23 23 23 22 24 26 19 17 14 21 16 15 13 20 18 15 17 19 23 25 27
31 31 30 22 12 13 6 12 11 11 10 21 10 15 17 25 25 20 23 32 24 25 25 25 25 24 21 23 24 25 19 17 16 15 16 14 17 15 19 19 17 18 21 24 28
30 29 28 22 6 11 3 14 12 8 6 9 6 4 5 14 15 28 27 32 24 27 26 24 25 26 25 26 23 24 22 19 17 12 13 17 12 18 17 19 17 21 23 25 28
30 29 25 19 10 6 12 14 11 4 6 7 7 1 3 11 15 28 28 29 27 22 24 26 23 26 27 25 25 23 23 22 19 18 21 23 15 15 23 20 19 20 25 28 29
28 28 24 11 8 9 15 13 5 7 9 4 4 1 7 8 12 6 32 31 29 23 25 28 29 24 21 24 23 22 24 24 17 14 16 10 18 11 12 19 19 22 24 27 29
28 24 17 8 9 16 13 9 8 9 3 5 1 2 9 12 11 17 20 25 24 23 23 26 29 25 23 23 24 26 24 14 14 16 16 21 23 14 14 18 17 21 24 27 29
28 17 12 3 11 12 9 10 14 10 12 7 8 11 15 15 15 15 23 24 30 25 17 20 26 31 18 25 24 28 26 16 21 18 17 14 19 16 21 8 7 7 21 23 27
27 13 5 6 11 11 12 10 13 13 8 11 15 16 19 16 16 16 21 24 28 31 27 21 26 28 26 24 26 26 26 26 21 21 17 16 12 11 8 14 14 12 12 21 25
24 14 5 8 13 10 11 15 18 14 11 11 17 13 15 17 6 14 18 17 24 31 29 22 17 28 27 23 27 28 24 25 21 22 22 20 22 15 16 11 13 15 16 14 17
16 11 1 14 10 11 9 9 10 14 14 9 17 20 19 20 15 16 9 17 20 27 32 32 20 23 24 28 25 23 23 26 24 21 16 16 14 16 22 19 18 15 21 19 17
10 7 10 14 11 5 6 7 13 18 20 18 20 22 23 21 19 20 20 20 13 17 19 33 22 16 30 27 26 27 28 30 18 25 17 14 11 14 14 22 20 19 10 3 11
13 13 6 11 6 9 10 12 15 15 14 18 21 23 23 23 21 17 23 25 16 15 9 11 28 17 22 24 24 29 30 28 28 24 24 13 14 7 17 17 17 10 9 1 8
11 4 2 4 6 7 11 13 12 12 13 24 22 24 23 22 20 21 24 17 9 15 18 13 19 25 19 23 25 30 27 31 28 22 23 21 12 15 8 11 15 11 9 10 4
5 4 4 6 10 11 12 13 12 10 10 21 20 24 23 21 18 22 25 20 13 14 13 13 17 22 27 20 25 28 30 28 32 29 28 24 25 14 16 11 7 16 11 10 8
6 6 11 19 11 11 11 3 7 11 4 12 5 15 20 20 20 17 22 23 17 9 9 17 15 21 24 26 23 30 30 30 29 28 28 32 22 21 22 18 11 11 13 10 10
6 7 6 13 16 7 5 8 11 8 7 9 12 8 20 15 13 16 15 16 12 8 13 16 14 18 20 26 21 23 30 28 24 29 25 27 26 18 21 18 15 19 10 2 1
Wind_Direction
1 358 353 348 344 338 333 328 324 321 317 312 305 300 295 290 288 288 268 256 245 265 249 200 206 222 227 244 252 274 276 262 64 343 141 125 110 142 58 125 150 163 141 152 154
2 358 355 351 346 341 335 330 325 320 315 313 310 308 302 295 292 275 266 253 250 248 222 202 206 211 224 237 238 251 278 22 24 17 117 127 124 122 162 141 140 142 134 150 155
2 358 352 347 343 337 334 332 329 324 316 310 311 309 305 309 304 273 241 238 243 233 209 212 215 216 235 241 226 258 278 45 64 103 296 136 116 147 131 170 151 147 147 156 160
2 359 354 349 343 336 332 329 328 324 318 310 306 306 302 297 275 359 263 250 225 207 200 213 217 222 237 234 229 247 230 308 36 150 159 137 117 134 179 139 151 153 160 161 167
357 354 350 347 342 337 335 332 328 321 318 313 302 298 293 249 253 268 247 190 185 181 202 212 218 228 236 244 229 238 267 281 165 170 140 118 154 120 105 143 149 151 163 168 173
355 353 350 347 343 338 335 335 331 324 318 313 304 290 267 256 256 242 210 205 176 187 208 212 220 223 244 266 250 257 270 286 179 142 146 184 125 171 117 141 150 156 168 173 176
350 350 348 346 342 338 335 334 334 326 317 310 302 282 247 240 237 222 207 202 197 199 211 217 220 231 235 267 241 258 253 180 177 157 149 148 151 146 138 150 154 166 170 176 180
345 345 345 342 341 338 335 335 333 330 322 310 298 260 256 262 227 228 208 214 215 221 226 227 223 237 245 264 260 239 239 203 152 167 154 229 148 126 151 152 163 169 172 178 183
342 341 341 340 340 338 336 333 334 328 328 321 326 226 263 239 247 219 209 212 212 215 218 227 220 225 230 237 242 212 223 222 161 186 146 202 196 129 161 156 166 176 175 182 185
343 340 339 338 339 337 339 337 332 325 339 331 266 248 244 264 231 223 213 211 204 200 200 214 211 217 230 213 228 212 227 152 212 179 163 193 139 139 179 166 170 182 182 187 190
343 339 338 337 337 346 349 348 332 252 279 279 276 268 277 267 258 233 201 199 192 194 199 202 207 211 211 222 231 233 212 238 183 164 197 185 181 154 177 188 174 181 187 193 197
345 342 339 340 341 355 14 17 11 315 300 282 268 261 252 245 270 232 192 196 198 198 202 192 217 219 222 211 231 246 246 217 199 156 200 195 197 163 170 199 190 185 188 196 198
346 344 342 349 360 4 357 5 335 323 265 297 262 252 243 225 237 237 195 201 203 210 204 217 211 219 218 228 219 233 241 218 204 168 192 239 200 184 171 189 210 197 191 198 199
345 343 341 350 359 330 326 333 333 318 280 160 154 103 201 220 241 222 205 203 206 215 217 219 225 205 225 220 215 222 230 255 218 152 244 214 241 190 196 181 200 205 195 197 200
344 341 342 341 330 343 316 323 316 284 281 88 104 19 199 219 329 193 205 207 224 209 215 217 217 222 209 218 219 228 210 235 244 196 221 195 225 208 189 183 194 207 200 200 199
343 339 336 340 321 310 323 313 291 236 249 151 129 220 263 221 232 245 200 209 217 228 225 234 213 223 219 218 216 227 237 212 240 241 235 164 252 189 212 189 191 192 200 203 200
340 334 328 336 309 316 317 296 243 242 94 291 13 318 306 290 249 216 202 203 215 217 220 219 232 215 229 215 212 222 222 211 210 225 234 220 211 230 351 170 197 184 183 200 203
339 342 325 295 324 323 312 254 250 283 284 301 277 306 287 288 269 254 234 213 216 218 213 212 212 220 206 217 211 216 219 224 199 213 222 227 219 237 151 223 165 195 176 187 199
340 342 310 295 328 321 283 248 245 269 352 326 319 285 272 251 255 271 226 229 215 220 228 203 224 202 205 214 227 202 220 227 229 217 229 211 208 263 206 225 187 179 188 182 193
338 325 248 327 318 290 261 263 290 330 328 315 288 289 285 285 192 247 250 226 227 216 234 243 213 220 197 215 219 233 208 219 231 225 219 223 191 213 217 192 191 198 180 179 191
341 306 120 323 315 244 249 303 348 337 351 297 302 294 281 284 288 271 286 250 218 227 221 239 245 211 190 204 202 209 212 216 232 236 229 231 218 188 193 190 198 210 192 177 194
316 295 342 332 281 188 281 8 315 295 292 285 280 270 271 282 275 261 260 265 356 314 250 226 242 234 202 200 216 213 218 206 228 228 242 252 227 196 158 181 192 203 101 61 269
313 295 305 334 304 341 338 307 300 292 288 276 267 265 261 260 258 263 271 275 295 300 5 258 233 226 219 192 208 222 210 221 214 233 237 214 252 105 162 169 168 157 103 53 234
306 299 354 298 322 313 320 306 312 315 327 298 295 264 259 249 239 247 263 237 263 287 330 307 258 229 217 201 197 210 212 211 221 218 227 222 154 203 182 187 151 156 122 71 160
294 322 27 311 331 327 296 300 331 334 311 294 282 255 255 248 237 235 242 267 268 280 269 253 249 239 236 224 207 202 219 211 221 220 224 218 226 179 169 201 195 159 130 110 111
310 329 315 294 316 288 279 324 282 282 290 290 269 309 311 277 245 221 236 236 248 269 310 269 244 238 228 238 210 206 204 223 216 224 222 236 223 205 227 175 184 141 163 147 128
266 301 282 282 276 283 322 309 302 342 270 258 284 279 284 278 346 313 303 299 309 308 291 287 231 221 233 223 217 209 207 212 212 219 223 225 239 223 205 204 175 212 198 285 215
Height
1534 1532 1529 1526 1523 1520 1517 1514 1511 1509 1507 1504 1502 1500 1498 1496 1496 1494 1493 1498 1497 1496 1497 1500 1501 1501 1501 1498 1493 1487 1478 1465 1463 1467 1475 1476 1481 1492 1494 1501 1505 1506 1510 1520 1529
1534 1531 1528 1525 1521 1518 1515 1512 1509 1507 1504 1502 1500 1498 1496 1493 1491 1488 1489 1490 1492 1493 1495 1498 1499 1499 1496 1492 1488 1482 1469 1465 1463 1465 1465 1475 1481 1492 1496 1502 1506 1510 1512 1523 1530
1535 1531 1528 1524 1520 1516 1513 1509 1506 1504 1501 1499 1497 1495 1493 1492 1488 1480 1480 1483 1486 1488 1493 1496 1496 1496 1492 1486 1482 1474 1470 1464 1466 1470 1467 1473 1482 1490 1491 1498 1505 1509 1517 1523 1529
1534 1530 1527 1523 1519 1514 1510 1507 1504 1500 1498 1495 1494 1493 1492 1492 1485 1479 1480 1480 1481 1484 1491 1493 1493 1491 1488 1481 1478 1477 1468 1469 1467 1473 1471 1472 1482 1487 1490 1491 1502 1509 1517 1524 1529
1534 1530 1525 1521 1517 1512 1508 1504 1501 1497 1494 1492 1491 1490 1489 1490 1482 1479 1480 1479 1479 1483 1487 1489 1490 1488 1483 1475 1473 1474 1468 1469 1469 1473 1472 1476 1482 1487 1492 1497 1502 1510 1517 1523 1528
1533 1529 1524 1519 1515 1510 1505 1501 1497 1494 1491 1489 1488 1487 1487 1486 1479 1476 1480 1479 1482 1484 1486 1487 1487 1485 1479 1476 1473 1467 1469 1466 1467 1472 1476 1477 1482 1486 1495 1498 1503 1510 1516 1522 1527
1532 1528 1523 1518 1513 1508 1503 1499 1495 1491 1487 1486 1485 1484 1485 1477 1475 1477 1478 1480 1482 1484 1484 1485 1486 1485 1482 1478 1474 1470 1470 1463 1465 1470 1475 1475 1482 1480 1493 1498 1503 1509 1515 1520 1525
1530 1526 1521 1516 1511 1506 1501 1496 1492 1487 1484 1482 1481 1481 1477 1471 1472 1474 1475 1477 1480 1482 1484 1484 1485 1484 1480 1475 1472 1469 1464 1465 1460 1468 1472 1474 1485 1480 1492 1496 1502 1508 1513 1519 1523
1529 1525 1520 1514 1509 1504 1499 1494 1490 1485 1481 1480 1480 1481 1473 1466 1467 1468 1472 1473 1476 1479 1481 1483 1483 1482 1480 1477 1472 1462 1467 1459 1465 1463 1468 1476 1478 1479 1488 1493 1500 1506 1510 1516 1521
1527 1522 1518 1513 1507 1502 1497 1492 1487 1483 1481 1478 1480 1483 1468 1464 1464 1465 1467 1470 1472 1475 1479 1480 1479 1477 1473 1470 1476 1461 1460 1454 1471 1461 1465 1470 1471 1478 1486 1489 1496 1502 1507 1512 1517
1525 1520 1516 1511 1506 1501 1495 1493 1489 1483 1483 1479 1473 1467 1465 1465 1464 1463 1464 1467 1468 1470 1469 1472 1473 1470 1461 1458 1453 1443 1446 1450 1442 1448 1459 1461 1463 1472 1482 1484 1490 1496 1502 1508 1512
1524 1518 1513 1509 1505 1502 1500 1499 1499 1499 1482 1468 1462 1460 1460 1462 1462 1459 1462 1464 1462 1460 1462 1463 1462 1454 1455 1453 1453 1444 1443 1445 1440 1443 1453 1454 1458 1459 1472 1479 1481 1488 1496 1502 1508
1523 1517 1511 1507 1503 1503 1502 1501 1499 1497 1486 1453 1451 1449 1451 1457 1455 1454 1457 1458 1457 1456 1453 1452 1450 1452 1450 1451 1452 1447 1444 1439 1444 1450 1449 1449 1456 1455 1459 1473 1476 1480 1487 1495 1500
1521 1515 1510 1505 1504 1503 1502 1500 1498 1497 1479 1440 1444 1447 1448 1449 1446 1449 1448 1453 1449 1450 1448 1447 1441 1444 1447 1448 1446 1452 1439 1436 1437 1464 1471 1450 1470 1451 1451 1461 1469 1473 1478 1486 1493
1519 1514 1509 1504 1502 1504 1503 1499 1497 1497 1472 1437 1441 1448 1446 1448 1435 1435 1442 1447 1442 1441 1442 1438 1438 1439 1444 1441 1440 1444 1437 1441 1436 1443 1449 1446 1460 1438 1438 1452 1457 1463 1469 1476 1484
1518 1512 1506 1507 1504 1504 1500 1498 1497 1486 1465 1435 1439 1441 1441 1436 1437 1432 1437 1442 1441 1435 1435 1430 1431 1432 1432 1435 1439 1441 1438 1439 1440 1443 1460 1447 1450 1441 1463 1438 1443 1450 1460 1468 1475
1515 1509 1504 1502 1505 1501 1499 1498 1485 1470 1435 1437 1435 1439 1438 1437 1429 1433 1431 1434 1434 1443 1436 1430 1426 1427 1426 1436 1435 1439 1442 1458 1470 1465 1462 1429 1444 1430 1435 1421 1430 1436 1450 1460 1468
1511 1507 1504 1503 1504 1500 1499 1493 1483 1451 1441 1433 1438 1440 1443 1437 1430 1430 1428 1427 1426 1424 1421 1430 1438 1419 1420 1427 1433 1435 1434 1443 1477 1467 1452 1427 1446 1429 1430 1431 1431 1437 1441 1452 1461
1509 1506 1505 1504 1502 1500 1497 1480 1462 1452 1449 1452 1450 1450 1438 1430 1431 1424 1418 1418 1416 1418 1423 1418 1423 1413 1415 1423 1425 1430 1434 1421 1435 1431 1440 1427 1427 1417 1416 1423 1426 1434 1438 1443 1452
1507 1505 1502 1502 1499 1497 1491 1478 1464 1461 1465 1466 1465 1450 1446 1432 1429 1430 1423 1410 1411 1412 1411 1401 1420 1403 1409 1418 1420 1416 1423 1438 1425 1457 1457 1431 1431 1436 1427 1427 1427 1431 1435 1440 1446
1508 1502 1498 1499 1495 1491 1475 1463 1467 1473 1479 1477 1468 1461 1450 1443 1433 1430 1424 1412 1402 1406 1410 1401 1401 1403 1399 1409 1416 1421 1418 1420 1418 1420 1445 1444 1427 1399 1414 1419 1425 1426 1429 1434 1441
1511 1500 1497 1496 1490 1477 1474 1478 1486 1482 1482 1478 1476 1470 1463 1451 1441 1439 1432 1419 1419 1415 1403 1398 1397 1404 1395 1398 1405 1407 1413 1416 1425 1435 1418 1426 1417 1389 1399 1410 1418 1420 1426 1432 1437
1509 1500 1497 1495 1481 1479 1481 1483 1483 1480 1477 1475 1471 1468 1462 1456 1454 1444 1435 1425 1427 1423 1414 1402 1395 1403 1398 1398 1400 1404 1402 1405 1411 1414 1423 1435 1436 1392 1397 1407 1417 1422 1430 1436 1434
1509 1494 1491 1493 1490 1489 1484 1482 1480 1480 1484 1481 1470 1465 1455 1448 1445 1446 1434 1425 1426 1426 1424 1423 1399 1390 1394 1391 1394 1407 1398 1401 1405 1415 1416 1413 1416 1416 1411 1409 1416 1424 1432 1433 1433
1512 1502 1502 1492 1491 1492 1488 1482 1479 1488 1487 1483 1475 1465 1454 1447 1443 1439 1437 1426 1426 1422 1423 1416 1409 1392 1381 1373 1381 1394 1399 1398 1405 1400 1412 1404 1405 1414 1411 1414 1416 1422 1430 1434 1438
1515 1511 1505 1500 1493 1490 1480 1483 1486 1486 1492 1482 1485 1488 1471 1451 1436 1434 1432 1429 1425 1418 1422 1413 1410 1396 1389 1376 1374 1386 1391 1393 1396 1397 1402 1400 1399 1398 1412 1415 1420 1425 1430 1433 1437
1514 1513 1513 1499 1485 1479 1482 1480 1479 1480 1483 1484 1481 1482 1475 1452 1447 1442 1440 1437 1430 1432 1430 1417 1403 1402 1399 1377 1373 1390 1381 1386 1391 1394 1396 1407 1398 1394 1400 1410 1418 1423 1426 1430 1434